Weather History for Scottsdale, AZ

Change the Weather History Date:

Thursday, June 27, 2013

  Actual Average Record
Temperature  
Mean Temperature 94 °F -  
Max Temperature 107 °F 101 °F 111 °F (2011)
Min Temperature 80 °F 78 °F 75 °F (2005)
Cooling Degree Days 28    
Growing Degree Days 44 (Base 50)    
Moisture  
Dew Point 38 °F    
Average Humidity 15    
Maximum Humidity 30    
Minimum Humidity 7    
Precipitation  
Precipitation 0.00 in - - ()
Sea Level Pressure  
Sea Level Pressure 29.87 in    
Wind  
Wind Speed 3 mph (WSW)    
Max Wind Speed 9 mph    
Max Gust Speed 16 mph    
Visibility 10 miles    
Events      
Averages and records for this station are not official NWS values.
T = Trace of Precipitation, MM = Missing Value Source: NWS Daily Summary

Daily Weather History Graph

Daily Weather History Graph

Search for Another Location

Airport:

Trip Planner

Search our weather history database for the weather conditions in past years. The results will help you decide how hot, cold, wet, or windy it might be!

Date:

Astronomy

Jun. 27, 2013 Rise Set
Actual Time 5:19 AM MST 7:41 PM MST
Civil Twilight 4:50 AM MST 8:10 PM MST
Nautical Twilight 4:14 AM MST 8:46 PM MST
Astronomical Twilight 3:36 AM MST 9:25 PM MST
Moon 10:57 PM MST (6/27) 10:09 AM MST (6/27)
Length of Visible Light 15h 20m
Length of Day
14h 22m
Waning Gibbous, 75% of the Moon is Illuminated
Jun 27
Waning Gibbous
Jun 29
Last Quarter
Jul 8
New
Jul 15
First Quarter
Jul 22
Full

Hourly Weather History & Observations

Time (MST) Temp. Dew Point Humidity Pressure Visibility Wind Dir Wind Speed Gust Speed Precip Events Conditions
12:53 AM 88.0 °F 41.0 °F 19% 29.88 in 10.0 mi North 3.5 mph - N/A   Clear
1:53 AM 86.0 °F 41.0 °F 20% 29.88 in 10.0 mi Calm Calm - N/A   Clear
2:53 AM 84.0 °F 43.0 °F 24% 29.89 in 10.0 mi Calm Calm - N/A   Clear
3:53 AM 82.0 °F 43.0 °F 25% 29.89 in 10.0 mi Calm Calm - N/A   Clear
4:53 AM 81.0 °F 42.1 °F 25% 29.90 in 10.0 mi Calm Calm - N/A   Clear
5:53 AM 80.1 °F 46.0 °F 30% 29.92 in 10.0 mi Calm Calm - N/A   Clear
6:53 AM 86.0 °F 42.1 °F 21% 29.94 in 10.0 mi Calm Calm - N/A   Clear
7:53 AM 87.1 °F 46.0 °F 24% 29.96 in 10.0 mi SSE 3.5 mph - N/A   Clear
8:53 AM 89.1 °F 42.1 °F 19% 29.98 in 10.0 mi Calm Calm - N/A   Clear
9:53 AM 93.9 °F 37.9 °F 14% 29.96 in 10.0 mi Variable 4.6 mph - N/A   Clear
10:53 AM 96.1 °F 39.9 °F 14% 29.96 in 10.0 mi Variable 3.5 mph - N/A   Clear
11:53 AM 99.0 °F 41.0 °F 14% 29.94 in 10.0 mi West 8.1 mph - N/A   Clear
12:53 PM 102.0 °F 41.0 °F 12% 29.92 in 10.0 mi Variable 6.9 mph - N/A   Clear
1:53 PM 102.9 °F 39.0 °F 11% 29.88 in 10.0 mi WSW 6.9 mph - N/A   Clear
2:53 PM 105.1 °F 36.0 °F 9% 29.86 in 10.0 mi West 9.2 mph 16.1 mph N/A   Clear
3:53 PM 106.0 °F 33.1 °F 8% 29.83 in 10.0 mi Variable 6.9 mph - N/A   Clear
4:53 PM 107.1 °F 35.1 °F 8% 29.81 in 10.0 mi West 6.9 mph - N/A   Clear
5:53 PM 107.1 °F 32.0 °F 7% 29.79 in 10.0 mi WSW 6.9 mph - N/A   Clear
6:53 PM 105.1 °F 30.9 °F 8% 29.78 in 10.0 mi WSW 6.9 mph - N/A   Clear
7:53 PM 102.0 °F 32.0 °F 9% 29.79 in 10.0 mi SW 3.5 mph - N/A   Clear
8:53 PM 97.0 °F 32.0 °F 10% 29.80 in 10.0 mi Calm Calm - N/A   Clear
9:53 PM 95.0 °F 33.1 °F 11% 29.81 in 10.0 mi Calm Calm - N/A   Clear
10:53 PM 93.9 °F 34.0 °F 12% 29.82 in 10.0 mi Calm Calm - N/A   Clear
11:53 PM 91.0 °F 35.1 °F 14% 29.81 in 10.0 mi Calm Calm - N/A   Clear